This is the latest recevied weather packets stored in our database for station/object KD7ECD. If no packets are shown the sender has not sent any weather packets the latest 10 day(s).
| Time | Temp. | Humidity | Pressure | Rain* | Wind** | Luminosity | Snow |
|---|---|---|---|---|---|---|---|
| 1777666396 | 21.11° C | 58% | 1016.7 hPa | 0 mm | - | 617 W/m² | - |
| 1777665796 | 21.67° C | 57% | 1016.7 hPa | 0 mm | - | 812 W/m² | - |
| 1777665195 | 21.11° C | 59% | 1017 hPa | 0 mm | - | 806 W/m² | - |
| 1777664593 | 20.56° C | 58% | 1016.9 hPa | 0 mm | - | 842 W/m² | - |
| 1777663988 | 20.56° C | 57% | 1017 hPa | 0 mm | - | 868 W/m² | - |
| 1777663388 | 20.56° C | 61% | 1017 hPa | 0 mm | - | 803 W/m² | - |
| 1777662788 | 20° C | 61% | 1017.1 hPa | 0 mm | - | 811 W/m² | - |
| 1777662187 | 19.44° C | 63% | 1017.2 hPa | 0 mm | - | 884 W/m² | - |
| 1777661584 | 19.44° C | 66% | 1017.3 hPa | 0 mm | - | 884 W/m² | - |
| 1777660982 | 18.89° C | 67% | 1017.3 hPa | 0 mm | - | 872 W/m² | - |
| 1777660381 | 18.89° C | 67% | 1017.6 hPa | 0 mm | - | 918 W/m² | - |
| 1777659780 | 18.33° C | 68% | 1017.7 hPa | 0 mm | - | 783 W/m² | - |
| 1777659180 | 17.78° C | 70% | 1017.8 hPa | 0 mm | - | 819 W/m² | - |
| 1777658578 | 17.78° C | 71% | 1017.8 hPa | 0 mm | - | 933 W/m² | - |
| 1777657979 | 17.22° C | 70% | 1018.1 hPa | 0 mm | - | 961 W/m² | - |
| 1777657379 | 17.22° C | 72% | 1017.7 hPa | 0 mm | - | 786 W/m² | - |
| 1777656773 | 17.22° C | 74% | 1017.8 hPa | 0 mm | - | 920 W/m² | - |
| 1777656170 | 16.11° C | 74% | 1017.9 hPa | 0 mm | - | 918 W/m² | - |
| 1777655569 | 16.67° C | 75% | 1017.9 hPa | 0 mm | - | 899 W/m² | - |
| 1777654968 | 16.11° C | 76% | 1017.6 hPa | 0 mm | - | 773 W/m² | - |
| 1777654363 | 15° C | 81% | 1018 hPa | 0 mm | - | 746 W/m² | - |
| 1777653763 | 15° C | 82% | 1017.7 hPa | 0 mm | - | 631 W/m² | - |
| 1777653163 | 14.44° C | 83% | 1017.6 hPa | 0 mm | - | 618 W/m² | - |
| 1777652561 | 13.89° C | 84% | 1018 hPa | 0 mm | - | 569 W/m² | - |
| 1777651961 | 13.33° C | 85% | 1017.8 hPa | 0 mm | - | 592 W/m² | - |
* Rain latest hour (hover to see other rain measurements)
** Current wind speed in m/s (hover to see current wind gust speed)